Location: Holcomb Observatory and Planetarium
(39.8415°N, 86.1714°W)
Time: 09:10:58
(UTC-04:00)

ISS - Visible Passes

Search period start: 21 April 2015 00:00
Search period end: 01 May 2015 00:00
Orbit: 395 x 403 km, 51.6° (Epoch: 21 April)

Date Brightness Start Highest point End Pass type
(mag) Time Alt. Az. Time Alt. Az. Time Alt. Az.
21 Apr -2.3 21:51:03 10° WNW 21:54:06 37° SW 21:55:22 26° S visible
22 Apr -3.3 20:56:50 10° NW 21:00:06 81° SW 21:03:20 10° SE visible
23 Apr -0.9 21:39:52 10° W 21:42:02 16° SW 21:44:08 10° S visible
